Location: Buffign�court
(47.8126°N, 6.0176°E)
Time: 01:53:56
(UTC+00:00)

Cosmos 2278 - Pass Details

Date: 16 June 2021
Orbit: 841 x 851 km, 71.1° (Epoch: 04 August)

Event Time Altitude Azimuth Distance (km) Brightness Sun altitude
Rises 20:05:19 0° 217° (SW) 3,400 6.8 -4.5°
Reaches altitude 10° 20:07:48 10° 221° (SW) 2,466 6.1 -4.8°
Maximum altitude 20:13:24 60° 301° (WNW) 964 4.4 -5.5°
Drops below altitude 10° 20:19:01 10° 22° (NNE) 2,475 6.5 -6.1°
Sets 20:21:31 0° 26° (NNE) 3,412 7.1 -6.4°
